[[{"header":{"parameterUnit":"m.s-1","parameterCategory":1,"la1":30.2991,"la2":30.254,"lo1":-89.0895,"lo2":-89.0444,"dy":0.0017,"dx":0.0017,"nx":28,"ny":28,"refTime":"2024-08-05T09:00:00:Z","depth":0,"parameterNumber":2,"parameterNumberName":"U-component_of_WINDS"},"data":[0,0,0,0,0,0,0,0,0,0,0,0,0,0,0,0,0,0,0,0,0,0,0,0,0,0,0,0,0,0,0,0,0,0,0,0,0,0,0,0,0,0,0,0,0,0,0,0,0,0,0,0,0,0,0,0,0,0,2.2428,2.2428,0,2.2477,2.2477,2.2478,2.2421,2.2418,2.2416,2.2414,2.2469,2.2472,2.2476,0,0,0,0,0,0,0,0,0,0,0,0,0,2.2291,2.2293,2.2428,2.2428,2.2429,2.2477,2.2477,2.2478,2.2421,2.2418,2.2416,2.2413,2.2468,2.2472,2.2476,0,0,0,0,0,0,0,0,0,0,0,0,0,2.2346,2.2294,2.2428,2.2406,2.2405,2.2477,2.2478,2.2478,2.2421,2.2418,2.2415,2.2412,2.2467,2.2472,2.2477,2.2574,0,0,2.2493,2.2495,0,0,0,0,0,0,0,0,2.2343,2.2351,2.2409,2.2408,2.2406,2.2439,2.2449,2.251,2.2422,2.2415,2.2414,2.241,2.2462,2.2467,2.2484,2.2576,2.2579,2.2493,2.2496,2.2498,2.25,0,0,0,0,0,0,0,2.2339,2.2349,2.2447,2.241,2.2408,2.2396,2.24,2.246,2.2456,2.2416,2.2412,2.2418,2.2461,2.2479,2.2485,2.2579,2.2493,2.2498,2.2501,2.2503,2.2758,2.2761,0,0,0,0,0,0,2.2337,2.2346,2.2446,2.2449,2.2366,2.2401,2.2406,2.2432,2.2455,2.2456,2.2421,2.2415,2.2472,2.2479,2.2486,2.2604,2.2498,2.2503,2.2506,2.2754,2.2758,2.2762,0,0,0,0,0,0,2.2334,2.2347,2.2444,2.2396,2.2408,2.2407,2.2437,2.2435,2.2453,2.2459,2.2459,2.244,2.2469,2.2479,2.2553,2.2605,2.2506,2.251,2.275,2.2755,2.276,2.2839,0,0,0,0,0,0,2.2331,2.2346,2.2381,2.2397,2.241,2.2508,2.244,2.2438,2.2461,2.2455,2.2477,2.2478,2.2468,2.2545,2.2558,2.2611,2.2514,2.2745,2.2752,2.2759,2.2832,2.2846,2.2859,0,0,0,0,0,2.2326,2.2402,2.2383,2.2396,2.2454,2.2511,2.2519,2.2504,2.2466,2.2503,2.2507,2.2477,2.2597,2.2553,2.2567,2.2622,2.2742,2.275,2.2758,2.2826,2.2843,2.2859,0,0,0,0,0,0,2.2393,2.2403,2.2383,2.2466,2.2488,2.2501,2.2547,2.2523,2.2558,2.255,2.2532,2.2538,2.2617,2.2626,2.2578,2.2719,2.2663,2.2675,2.271,2.2727,2.274,2.2738,2.2519,0,0,0,0,0,2.2417,2.246,2.2468,2.254,2.2552,2.2548,2.2572,2.2559,2.2582,2.2591,2.2601,2.2626,2.2669,2.2698,2.2738,2.2832,2.2838,2.2877,2.289,2.2902,2.2913,2.2966,2.2985,2.2789,2.2789,2.2789,0,0,2.2468,2.2479,2.2508,2.2554,2.2569,2.2617,2.2556,2.2608,2.2644,2.2599,2.267,2.2678,2.2705,2.279,2.2828,2.2801,2.2968,2.2912,2.2921,2.2926,2.2977,2.2995,2.3012,2.2795,2.2794,2.2793,0,0,2.2585,2.2597,2.266,2.2677,2.27,2.2697,2.2713,2.273,2.2734,2.2804,2.2772,2.2815,2.2889,2.2911,2.2931,2.3059,2.3034,2.3072,2.3145,2.3197,2.3213,2.3226,2.3275,2.3292,2.3083,2.3083,2.3083,0,2.2646,2.2715,2.2695,2.2751,2.2774,2.2734,2.2799,2.2817,2.2854,2.2872,2.2839,2.2934,2.2949,2.304,2.3071,2.3088,2.3107,2.3071,2.3211,2.3225,2.3238,2.3284,2.3302,2.3088,2.3087,2.3087,2.3086,0,2.279,2.2838,2.2886,2.2922,2.295,2.301,2.3003,2.3034,2.3019,2.302,2.3094,2.311,2.3154,2.3174,2.316,2.3265,2.3247,2.3214,2.3158,2.3261,2.3305,2.3322,2.3094,2.3093,2.3091,2.309,0,0,2.2951,2.2976,2.2995,2.3011,2.3036,2.3074,2.3133,2.3175,2.3204,2.3231,2.3282,2.3347,2.3317,2.334,2.3328,2.3374,2.3478,2.3335,2.3336,2.3364,2.3598,2.3625,2.3646,2.3461,2.3464,2.3467,2.3597,0,2.3071,2.3173,2.3158,2.3257,2.3304,2.3267,2.3319,2.3342,2.3344,2.3386,2.3389,2.3437,2.3392,2.3406,2.3449,2.3456,2.3526,2.3446,2.3512,2.3514,2.3509,2.3668,2.3696,2.3819,2.3614,2.3616,2.3618,0,2.3225,2.3257,2.3361,2.338,2.3399,2.3446,2.3485,2.3523,2.3549,2.3548,2.3575,2.3555,2.3618,2.3559,2.3647,2.3594,2.362,2.3627,2.3632,2.3639,2.3574,2.3683,2.3857,2.3877,2.3644,2.3642,2.364,0,2.3337,2.3406,2.3477,2.3492,2.3515,2.355,2.3562,2.3583,2.3611,2.3645,2.3663,2.3705,2.3728,2.3762,2.3756,2.3713,2.3847,2.3786,2.385,2.3851,2.3882,2.3881,2.4066,2.3894,2.3894,2.3893,2.3893,0,2.3474,2.354,2.3528,2.3572,2.3646,2.3629,2.3702,2.371,2.373,2.3777,2.3748,2.3793,2.378,2.3825,2.3821,2.3896,2.3906,2.391,2.3908,2.3914,2.3914,2.3933,2.3925,2.3898,2.3897,2.3896,2.3895,0,2.3612,2.3606,2.3682,2.3698,2.3704,2.3757,2.3772,2.3815,2.3816,2.3876,2.3889,2.3891,2.3943,2.3939,2.3998,2.3995,2.4089,2.4076,2.4081,2.4079,2.4144,2.414,2.435,2.4378,2.4186,2.4187,2.4189,0,2.3701,2.3751,2.3772,2.3801,2.3815,2.3861,2.3889,2.3875,2.3905,2.3939,2.3979,2.4028,2.4067,2.4153,2.4161,2.4207,2.4196,2.4267,2.4203,2.4209,2.4202,2.42,2.4206,2.4281,2.4283,2.4284,2.4286,0,2.3862,2.3857,2.3897,2.3937,2.397,2.4001,2.4029,2.4055,2.4044,2.408,2.4133,2.4163,2.4223,2.4274,2.4318,2.4332,2.4309,2.4305,2.4323,2.4331,2.4333,2.4336,2.4118,2.4301,2.43,2.4299,2.4298,2.4297,2.3981,2.4024,2.4046,2.4093,2.4112,2.414,2.4182,2.4187,2.423,2.4277,2.4267,2.4327,2.4353,2.441,2.4428,2.4477,2.4452,2.4477,2.4484,2.4491,2.45,2.4323,2.4485,2.4484,2.4484,2.4483,2.4483,0,2.4143,2.4155,2.4198,2.4238,2.4275,2.4247,2.4277,2.4311,2.4364,2.439,2.4429,2.4491,2.454,2.4552,2.46,2.4637,2.4628,2.465,2.4649,2.4654,2.4518,2.4499,2.4657,2.4657,2.4657,2.4657,2.4657,2.4657,2.4232,2.4305,2.4303,2.4386,2.4398,2.4456,2.4476,2.4503,2.4523,2.4593,2.4634,2.464,2.4662,2.4711,2.4757,2.4759,2.478,2.4808,2.4806,2.468,2.4663,2.4646,2.4629,2.4811,2.4811,2.4938,2.4939,2.494]},{"header":{"parameterUnit":"m.s-1","parameterCategory":1,"la1":30.2991,"la2":30.254,"lo1":-89.0895,"lo2":-89.0444,"dy":0.0017,"dx":0.0017,"nx":28,"ny":28,"refTime":"2024-08-05T09:00:00:Z","depth":0,"parameterNumber":3,"parameterNumberName":"V-component_of_WINDS"},"data":[0,0,0,0,0,0,0,0,0,0,0,0,0,0,0,0,0,0,0,0,0,0,0,0,0,0,0,0,0,0,0,0,0,0,0,0,0,0,0,0,0,0,0,0,0,0,0,0,0,0,0,0,0,0,0,0,0,0,-0.6353,-0.6353,0,-0.6293,-0.6292,-0.6291,-0.629,-0.6291,-0.6291,-0.6292,-0.622,-0.6218,-0.6215,0,0,0,0,0,0,0,0,0,0,0,0,0,-0.6459,-0.6457,-0.6353,-0.6353,-0.6352,-0.6293,-0.6292,-0.6291,-0.629,-0.6291,-0.6292,-0.6292,-0.6221,-0.6218,-0.6215,0,0,0,0,0,0,0,0,0,0,0,0,0,-0.6407,-0.6456,-0.6354,-0.6344,-0.6343,-0.6293,-0.6292,-0.6291,-0.6289,-0.6291,-0.6292,-0.6293,-0.6222,-0.6218,-0.6214,-0.6167,0,0,-0.6202,-0.6201,0,0,0,0,0,0,0,0,-0.641,-0.6403,-0.6346,-0.6345,-0.6343,-0.63,-0.6303,-0.6249,-0.6289,-0.6309,-0.6292,-0.6293,-0.6245,-0.6239,-0.6225,-0.6163,-0.616,-0.6202,-0.6199,-0.6198,-0.6197,0,0,0,0,0,0,0,-0.6413,-0.6405,-0.6329,-0.6345,-0.6344,-0.634,-0.6334,-0.6293,-0.6271,-0.6308,-0.6308,-0.6301,-0.6244,-0.6229,-0.6223,-0.6159,-0.6202,-0.6198,-0.6196,-0.6195,-0.6054,-0.6052,0,0,0,0,0,0,-0.642,-0.6408,-0.6331,-0.6327,-0.638,-0.6337,-0.6331,-0.6313,-0.6272,-0.6267,-0.63,-0.6301,-0.6235,-0.6228,-0.6221,-0.6161,-0.6198,-0.6194,-0.6192,-0.6055,-0.6053,-0.6052,0,0,0,0,0,0,-0.6422,-0.6413,-0.6334,-0.6368,-0.6358,-0.6334,-0.6314,-0.6311,-0.6296,-0.6266,-0.6261,-0.6289,-0.6236,-0.6226,-0.6181,-0.6159,-0.6192,-0.6189,-0.6057,-0.6054,-0.6053,-0.6043,0,0,0,0,0,0,-0.6425,-0.6414,-0.6398,-0.6368,-0.6356,-0.6297,-0.6313,-0.6309,-0.629,-0.6291,-0.6254,-0.6249,-0.6236,-0.6187,-0.6177,-0.6154,-0.6186,-0.6058,-0.6056,-0.6053,-0.6045,-0.6041,-0.6037,0,0,0,0,0,-0.6429,-0.6396,-0.6397,-0.6388,-0.6336,-0.6296,-0.6289,-0.6277,-0.6288,-0.627,-0.6251,-0.625,-0.6164,-0.6182,-0.6171,-0.6147,-0.606,-0.6056,-0.6053,-0.6047,-0.6041,-0.6037,0,0,0,0,0,0,-0.642,-0.6391,-0.6393,-0.6349,-0.6325,-0.6296,-0.6273,-0.6272,-0.6242,-0.6244,-0.6228,-0.6219,-0.6173,-0.6155,-0.6177,-0.6098,-0.6112,-0.6107,-0.6111,-0.6106,-0.6102,-0.6106,-0.6182,0,0,0,0,0,-0.6414,-0.6387,-0.6362,-0.6326,-0.6314,-0.6296,-0.6278,-0.6272,-0.6245,-0.6234,-0.6211,-0.6183,-0.6149,-0.6127,-0.6094,-0.6043,-0.6033,-0.6021,-0.6017,-0.6014,-0.6008,-0.5978,-0.5971,-0.6042,-0.6042,-0.6042,0,0,-0.6399,-0.638,-0.6364,-0.6324,-0.6305,-0.6274,-0.6287,-0.6254,-0.6231,-0.6228,-0.6184,-0.6166,-0.6133,-0.6084,-0.6061,-0.6068,-0.5987,-0.601,-0.6008,-0.6004,-0.5974,-0.5968,-0.5962,-0.604,-0.604,-0.604,0,0,-0.6357,-0.6341,-0.6309,-0.629,-0.6262,-0.625,-0.6242,-0.6213,-0.6202,-0.6158,-0.6155,-0.6125,-0.6068,-0.6044,-0.6024,-0.5974,-0.597,-0.5963,-0.5942,-0.5912,-0.5907,-0.5902,-0.5881,-0.5875,-0.5958,-0.5958,-0.5958,0,-0.6341,-0.6298,-0.6291,-0.6259,-0.624,-0.624,-0.6205,-0.6186,-0.6147,-0.6133,-0.6142,-0.607,-0.6048,-0.5992,-0.598,-0.5965,-0.5953,-0.5966,-0.5909,-0.5904,-0.5899,-0.5879,-0.5872,-0.5958,-0.5958,-0.5958,-0.5958,0,-0.6279,-0.6249,-0.6226,-0.6192,-0.6171,-0.6138,-0.6123,-0.6102,-0.6097,-0.6084,-0.6038,-0.6011,-0.5973,-0.596,-0.5954,-0.5903,-0.5908,-0.5913,-0.5927,-0.5891,-0.5873,-0.5865,-0.5956,-0.5957,-0.5957,-0.5957,0,0,-0.6227,-0.6192,-0.6183,-0.6167,-0.6137,-0.6112,-0.6078,-0.6044,-0.6025,-0.5998,-0.5967,-0.5919,-0.5924,-0.5901,-0.5893,-0.5867,-0.5826,-0.5875,-0.5874,-0.5865,-0.5766,-0.5761,-0.5753,-0.5826,-0.5824,-0.5823,-0.5768,0,-0.618,-0.6123,-0.6115,-0.6063,-0.6034,-0.6033,-0.6003,-0.5979,-0.5965,-0.5936,-0.592,-0.5885,-0.5896,-0.5882,-0.5857,-0.5837,-0.5806,-0.5841,-0.5792,-0.5791,-0.5799,-0.5743,-0.5738,-0.5687,-0.5761,-0.576,-0.5759,0,-0.6117,-0.6092,-0.6037,-0.6011,-0.5998,-0.5972,-0.5939,-0.5913,-0.5885,-0.5876,-0.5852,-0.5847,-0.5808,-0.5826,-0.577,-0.5794,-0.5774,-0.5761,-0.5758,-0.5751,-0.5771,-0.5732,-0.5671,-0.5663,-0.5748,-0.5749,-0.5749,0,-0.6082,-0.6035,-0.5996,-0.5983,-0.5951,-0.5932,-0.5917,-0.5891,-0.5871,-0.5841,-0.5827,-0.5793,-0.5773,-0.5745,-0.5729,-0.5744,-0.5674,-0.5691,-0.5662,-0.5663,-0.5646,-0.5646,-0.5578,-0.5637,-0.5637,-0.5637,-0.5637,0,-0.6029,-0.5995,-0.598,-0.5956,-0.5917,-0.5908,-0.5869,-0.5854,-0.5831,-0.5801,-0.5798,-0.577,-0.5752,-0.572,-0.5707,-0.5661,-0.5653,-0.5642,-0.5639,-0.5641,-0.5642,-0.5626,-0.5628,-0.5635,-0.5635,-0.5636,-0.5636,0,-0.5983,-0.5972,-0.5929,-0.5904,-0.5896,-0.5869,-0.5845,-0.582,-0.5807,-0.577,-0.576,-0.5739,-0.5701,-0.5684,-0.5636,-0.5627,-0.5575,-0.5575,-0.5585,-0.5583,-0.5555,-0.5557,-0.5472,-0.5459,-0.5529,-0.5528,-0.5527,0,-0.5948,-0.5922,-0.5895,-0.5877,-0.5863,-0.5833,-0.5813,-0.5803,-0.5782,-0.5748,-0.5726,-0.569,-0.5659,-0.5598,-0.5576,-0.5539,-0.5537,-0.5509,-0.5531,-0.5534,-0.5533,-0.5534,-0.553,-0.5505,-0.5504,-0.5503,-0.5503,0,-0.5887,-0.5884,-0.5857,-0.5828,-0.5805,-0.5781,-0.5757,-0.5741,-0.5727,-0.5703,-0.5666,-0.5643,-0.5596,-0.5558,-0.552,-0.5501,-0.5498,-0.5497,-0.5488,-0.5489,-0.5495,-0.5489,-0.5572,-0.5498,-0.5499,-0.5499,-0.5499,-0.5499,-0.5844,-0.5821,-0.5799,-0.5768,-0.575,-0.5728,-0.5703,-0.5689,-0.5659,-0.5622,-0.5617,-0.5577,-0.5548,-0.5498,-0.5478,-0.5444,-0.545,-0.5438,-0.5434,-0.543,-0.5428,-0.5503,-0.5437,-0.5437,-0.5437,-0.5437,-0.5438,0,-0.5781,-0.5767,-0.574,-0.5708,-0.5684,-0.5688,-0.5662,-0.564,-0.5606,-0.5582,-0.5553,-0.551,-0.5473,-0.5449,-0.5412,-0.5389,-0.5386,-0.5379,-0.5379,-0.5374,-0.5426,-0.5436,-0.5382,-0.5382,-0.5382,-0.5382,-0.5382,-0.5382,-0.5746,-0.5706,-0.57,-0.5651,-0.5636,-0.56,-0.5584,-0.5563,-0.5543,-0.5496,-0.5467,-0.5453,-0.5427,-0.5388,-0.5354,-0.5347,-0.5332,-0.5324,-0.5317,-0.5365,-0.5371,-0.5376,-0.5386,-0.5322,-0.5321,-0.5268,-0.5268,-0.5267]}]]